When you browse on this site, cookies collect data to enhance your experience and personalize the content and advertising you see.
Visit our Privacy Policy to learn more. By continuing to use the site, you agree to this use of cookies and data.
  • In Österreich
  • Länderverzeichnis
  • Für 7 Tage
  • Wassertemperatur
  • Wetterkarte
  • News
  • Widgets
  • user-avatar
    Anmelden

    Stündliche Wetter Komissarovo

    Heute, 15 Dezember, Sonntag

    Zeit Temperatur Niederschläge Wind Luftdruck Luftfeuchtigkeit
    00:00 -2°C° 0 mm 5 m/S 739 mmHg 89%
    01:00 -2°C° 0 mm 5 m/S 739 mmHg 91%
    02:00 -2°C° 0 mm 5 m/S 738 mmHg 92%
    03:00 -1°C° 0.1 mm 5 m/S 738 mmHg 93%
    04:00 -1°C° 0.1 mm 5 m/S 737 mmHg 93%
    05:00 -1°C° 0.1 mm 5 m/S 736 mmHg 94%
    06:00 0°C° 0.3 mm 5 m/S 736 mmHg 94%
    07:00 0°C° 0.3 mm 5 m/S 736 mmHg 95%
    08:00 +1°C° 0.3 mm 5 m/S 736 mmHg 95%
    09:00 +1°C° 0.6 mm 5 m/S 736 mmHg 96%
    10:00 +1°C° 0.6 mm 5 m/S 735 mmHg 96%
    11:00 +1°C° 0.6 mm 5 m/S 735 mmHg 96%
    12:00 +1°C° 0.2 mm 5 m/S 736 mmHg 94%
    13:00 +1°C° 0.2 mm 5 m/S 736 mmHg 91%
    14:00 +1°C° 0.2 mm 4 m/S 736 mmHg 88%
    15:00 0°C° 0 mm 4 m/S 737 mmHg 88%
    16:00 0°C° 0 mm 4 m/S 737 mmHg 88%
    17:00 0°C° 0 mm 4 m/S 738 mmHg 89%
    18:00 -1°C° 0 mm 4 m/S 738 mmHg 90%
    19:00 0°C° 0 mm 3 m/S 739 mmHg 90%
    20:00 -1°C° 0 mm 3 m/S 739 mmHg 91%
    21:00 -1°C° 0 mm 3 m/S 739 mmHg 92%
    22:00 -1°C° 0 mm 3 m/S 740 mmHg 93%
    23:00 -2°C° 0 mm 4 m/S 740 mmHg 93%

    Morgen, 16 Dezember, Montag

    Zeit Temperatur Niederschläge Wind Luftdruck Luftfeuchtigkeit
    00:00 -2°C° 0 mm 4 m/S 740 mmHg 93%
    01:00 -1°C° 0 mm 4 m/S 740 mmHg 93%
    02:00 -1°C° 0 mm 5 m/S 740 mmHg 93%
    03:00 -1°C° 0.1 mm 5 m/S 740 mmHg 93%
    04:00 0°C° 0.1 mm 5 m/S 740 mmHg 94%
    05:00 -1°C° 0.1 mm 6 m/S 739 mmHg 95%
    06:00 -1°C° 0 mm 6 m/S 740 mmHg 94%
    07:00 +1°C° 0 mm 6 m/S 740 mmHg 93%
    08:00 +1°C° 0 mm 6 m/S 740 mmHg 92%
    09:00 +1°C° 0 mm 6 m/S 740 mmHg 90%
    10:00 0°C° 0 mm 7 m/S 741 mmHg 87%
    11:00 0°C° 0 mm 7 m/S 741 mmHg 85%
    12:00 0°C° 0 mm 7 m/S 741 mmHg 82%
    13:00 0°C° 0 mm 7 m/S 741 mmHg 79%
    14:00 0°C° 0 mm 7 m/S 741 mmHg 77%
    15:00 0°C° 0 mm 7 m/S 742 mmHg 77%
    16:00 0°C° 0 mm 7 m/S 743 mmHg 78%
    17:00 0°C° 0 mm 7 m/S 743 mmHg 79%
    18:00 -1°C° 0 mm 6 m/S 744 mmHg 81%
    19:00 -1°C° 0 mm 6 m/S 745 mmHg 84%
    20:00 -1°C° 0 mm 5 m/S 745 mmHg 87%
    21:00 -1°C° 0 mm 5 m/S 745 mmHg 89%
    22:00 -1°C° 0 mm 4 m/S 746 mmHg 91%
    23:00 -2°C° 0 mm 4 m/S 746 mmHg 93%

    übermorgen, 17 Dezember, Dienstag

    Zeit Temperatur Niederschläge Wind Luftdruck Luftfeuchtigkeit
    00:00 -2°C° 0 mm 4 m/S 746 mmHg 92%
    01:00 -1°C° 0 mm 3 m/S 747 mmHg 92%
    02:00 -1°C° 0 mm 3 m/S 747 mmHg 92%
    03:00 -1°C° 0 mm 3 m/S 747 mmHg 90%
    04:00 -1°C° 0 mm 3 m/S 746 mmHg 89%
    05:00 0°C° 0 mm 3 m/S 746 mmHg 87%
    06:00 -1°C° 0 mm 4 m/S 746 mmHg 88%
    07:00 -1°C° 0 mm 4 m/S 745 mmHg 88%
    08:00 0°C° 0 mm 5 m/S 745 mmHg 88%
    09:00 0°C° 0.2 mm 5 m/S 745 mmHg 89%
    10:00 +1°C° 0.2 mm 5 m/S 745 mmHg 90%
    11:00 +1°C° 0.2 mm 6 m/S 744 mmHg 90%
    12:00 +1°C° 0.1 mm 5 m/S 744 mmHg 91%
    13:00 +2°C° 0.1 mm 5 m/S 744 mmHg 91%
    14:00 +2°C° 0.1 mm 5 m/S 743 mmHg 92%
    15:00 +1°C° 0 mm 4 m/S 743 mmHg 93%
    16:00 +1°C° 0 mm 4 m/S 743 mmHg 94%
    17:00 +1°C° 0 mm 4 m/S 744 mmHg 95%
    18:00 +1°C° 0 mm 3 m/S 744 mmHg 95%
    19:00 +1°C° 0 mm 3 m/S 744 mmHg 96%
    20:00 +1°C° 0 mm 3 m/S 744 mmHg 96%
    21:00 +2°C° 0 mm 2 m/S 744 mmHg 96%
    22:00 +2°C° 0 mm 2 m/S 744 mmHg 97%
    23:00 +2°C° 0 mm 2 m/S 744 mmHg 97%

    18 Dezember, Mittwoch

    Zeit Temperatur Niederschläge Wind Luftdruck Luftfeuchtigkeit
    00:00 +2°C° 0 mm 2 m/S 744 mmHg 97%
    01:00 +2°C° 0 mm 2 m/S 744 mmHg 97%
    02:00 +3°C° 0 mm 1 m/S 744 mmHg 96%
    03:00 +3°C° 0 mm 1 m/S 744 mmHg 96%
    04:00 +2°C° 0 mm 2 m/S 744 mmHg 96%
    05:00 +2°C° 0 mm 2 m/S 744 mmHg 96%
    06:00 +2°C° 0 mm 2 m/S 744 mmHg 96%
    07:00 +2°C° 0 mm 2 m/S 744 mmHg 96%
    08:00 +2°C° 0 mm 2 m/S 744 mmHg 96%
    09:00 +1°C° 0 mm 3 m/S 744 mmHg 95%
    10:00 +2°C° 0 mm 3 m/S 744 mmHg 94%
    11:00 +2°C° 0 mm 3 m/S 744 mmHg 93%
    12:00 +2°C° 0 mm 3 m/S 743 mmHg 93%
    13:00 +3°C° 0 mm 3 m/S 743 mmHg 93%
    14:00 +3°C° 0 mm 3 m/S 743 mmHg 93%
    15:00 +2°C° 0 mm 3 m/S 743 mmHg 94%
    16:00 +2°C° 0 mm 3 m/S 743 mmHg 95%
    17:00 +2°C° 0 mm 3 m/S 743 mmHg 95%
    18:00 +1°C° 0 mm 3 m/S 743 mmHg 95%
    19:00 +1°C° 0 mm 3 m/S 742 mmHg 95%
    20:00 +1°C° 0 mm 3 m/S 742 mmHg 95%
    21:00 0°C° 0 mm 4 m/S 742 mmHg 94%
    22:00 +1°C° 0 mm 4 m/S 742 mmHg 94%
    23:00 +1°C° 0 mm 4 m/S 742 mmHg 93%

    19 Dezember, Donnerstag

    Zeit Temperatur Niederschläge Wind Luftdruck Luftfeuchtigkeit
    00:00 +1°C° 0 mm 5 m/S 742 mmHg 94%
    01:00 +1°C° 0 mm 5 m/S 742 mmHg 94%
    02:00 +1°C° 0 mm 5 m/S 741 mmHg 94%
    03:00 +1°C° 0 mm 5 m/S 741 mmHg 94%
    04:00 +1°C° 0 mm 5 m/S 741 mmHg 94%
    05:00 +1°C° 0 mm 5 m/S 741 mmHg 94%
    06:00 +1°C° 0 mm 4 m/S 742 mmHg 93%
    07:00 +3°C° 0 mm 4 m/S 742 mmHg 92%
    08:00 +3°C° 0 mm 4 m/S 742 mmHg 90%
    09:00 +3°C° 0 mm 4 m/S 742 mmHg 89%
    10:00 +3°C° 0 mm 4 m/S 743 mmHg 88%
    11:00 +3°C° 0 mm 3 m/S 743 mmHg 87%
    12:00 +3°C° 0 mm 3 m/S 743 mmHg 85%
    13:00 +2°C° 0 mm 3 m/S 743 mmHg 84%
    14:00 +2°C° 0 mm 3 m/S 743 mmHg 82%
    15:00 +3°C° 0 mm 2 m/S 744 mmHg 84%
    16:00 +2°C° 0 mm 2 m/S 744 mmHg 86%
    17:00 +2°C° 0 mm 2 m/S 744 mmHg 87%
    18:00 +1°C° 0 mm 2 m/S 744 mmHg 88%
    19:00 +1°C° 0 mm 2 m/S 744 mmHg 89%
    20:00 +1°C° 0 mm 2 m/S 745 mmHg 91%
    21:00 -1°C° 0 mm 2 m/S 745 mmHg 91%
    22:00 -1°C° 0 mm 2 m/S 745 mmHg 92%
    23:00 -2°C° 0 mm 2 m/S 745 mmHg 93%

    20 Dezember, Freitag

    Zeit Temperatur Niederschläge Wind Luftdruck Luftfeuchtigkeit
    00:00 -2°C° 0 mm 2 m/S 745 mmHg 92%
    01:00 -2°C° 0 mm 2 m/S 745 mmHg 92%
    02:00 -2°C° 0 mm 2 m/S 745 mmHg 91%
    03:00 -1°C° 0 mm 2 m/S 746 mmHg 88%
    04:00 -1°C° 0 mm 2 m/S 746 mmHg 85%
    05:00 -1°C° 0 mm 2 m/S 746 mmHg 82%
    06:00 -1°C° 0 mm 2 m/S 746 mmHg 82%
    07:00 +1°C° 0 mm 1 m/S 746 mmHg 81%
    08:00 +1°C° 0 mm 1 m/S 746 mmHg 81%
    09:00 +1°C° 0 mm 1 m/S 746 mmHg 79%
    10:00 +1°C° 0 mm 1 m/S 747 mmHg 77%
    11:00 0°C° 0 mm 0 m/S 747 mmHg 76%
    12:00 +1°C° 0 mm 1 m/S 747 mmHg 77%
    13:00 +1°C° 0 mm 1 m/S 746 mmHg 78%
    14:00 +1°C° 0 mm 1 m/S 746 mmHg 78%
    15:00 0°C° 0 mm 1 m/S 746 mmHg 81%
    16:00 0°C° 0 mm 1 m/S 746 mmHg 84%
    17:00 -1°C° 0 mm 1 m/S 746 mmHg 86%
    18:00 -1°C° 0 mm 1 m/S 746 mmHg 86%
    19:00 -1°C° 0 mm 1 m/S 746 mmHg 86%
    20:00 -1°C° 0 mm 1 m/S 746 mmHg 85%
    21:00 -1°C° 0 mm 1 m/S 746 mmHg 86%
    22:00 -1°C° 0 mm 1 m/S 746 mmHg 87%
    23:00 -1°C° 0 mm 1 m/S 746 mmHg 87%
    Mehr zeigen